Temp: 13.1°C   Baro: 1011.2mb
  Wind: 12.1mph   Dir: WNW (288°)
  Rain: 0.0mm (0.0mm/hr)
  Solar: 7W/m2  Hum: 61%

  • No weather warnings have been issued for the Bath area at this time.

10 day detailed forecast for Bath, United Kingdom

Last update: 25.09.2020 13:20
Next update: 25.09.2020 19:34
Latitude: 51.38° N
Longitude: 2.36° W
meteogram
    Temperature Precipitation Pressure Wind Humidity Clouds Fog
 06:01     18:00 Today
18:00   1011.3 mb 15 mph 62% 12%
19:00   1011.9 mb 15 mph 69% 8%
20:00   1012.6 mb 14 mph 72% 20%
21:00   1013.0 mb 14 mph 73% 12%
22:00   1013.1 mb 13 mph 71% 7%
23:00   1013.3 mb 12 mph 72% 2%
 06:03     17:58 Tomorrow
00:00   1013.4 mb 11 mph 73% 2%
01:00   1013.5 mb 11 mph 75% 4%
02:00   1013.4 mb 11 mph 76% 6%
03:00   1013.2 mb 11 mph 77% 2%
04:00   1013.2 mb 11 mph 78% 0%
05:00   1013.2 mb 11 mph 79% 0%
06:00   1013.4 mb 11 mph 80% 0%
07:00   1013.6 mb 12 mph 78% 0%
08:00   1013.9 mb 12 mph 73% 1%
09:00   1013.9 mb 15 mph 63% 9%
10:00   1014.1 mb 16 mph 55% 18%
11:00   1014.2 mb 18 mph 46% 31%
12:00   1014.2 mb 17 mph 45% 9%
13:00   1014.1 mb 16 mph 41% 1%
14:00   1014.0 mb 15 mph 42% 25%
15:00   1014.1 mb 17 mph 44% 93%
16:00   1014.4 mb 16 mph 49% 65%
17:00   1015.0 mb 14 mph 56% 10%
18:00   1015.7 mb 13 mph 61% 2%
19:00   1016.2 mb 12 mph 64% 1%
20:00   1016.4 mb 11 mph 65% 2%
21:00   1016.5 mb 11 mph 67% 1%
22:00   1016.6 mb 10 mph 70% 1%
23:00   1016.8 mb 10 mph 72% 3%
 06:04     17:55 Sunday 27.09.2020
00:00   1016.8 mb 11 mph 72% 5%
01:00   1016.6 mb 11 mph 70% 36%
02:00   1016.3 mb 11 mph 70% 31%
03:00   1016.2 mb 11 mph 72% 22%
04:00   1016.0 mb 11 mph 75% 11%
05:00   1015.9 mb 12 mph 77% 7%
06:00   1016.1 mb 11 mph 79% 6%
07:00   1016.1 mb 13 mph 78% 2%
08:00   1015.9 mb 12 mph 75% 1%
09:00   1015.9 mb 13 mph 70% 1%
10:00   1016.3 mb 13 mph 65% 2%
11:00   1015.8 mb 13 mph 61% 2%
12:00   1015.3 mb 14 mph 55% 3%
13:00   1014.9 mb 15 mph 51% 3%
14:00   1014.7 mb 14 mph 49% 4%
15:00   1014.6 mb 13 mph 49% 5%
16:00   1014.5 mb 12 mph 50% 5%
17:00   1014.5 mb 9 mph 55% 3%
18:00   1015.0 mb 6 mph 64% 3%
19:00   1015.4 mb 6 mph 70% 2%
20:00   1015.6 mb 6 mph 75% 43%
21:00   1015.8 mb 6 mph 80% 10%
22:00   1015.9 mb 6 mph 84% 2%
23:00   1015.9 mb 6 mph 89% 9%
 06:06     17:53 Monday 28.09.2020
00:00   1015.8 mb 5 mph 92% 28%
01:00   1015.3 mb 5 mph 93% 20%
02:00   1014.9 mb 5 mph 93% 84%
03:00   1014.7 mb 5 mph 93% 81%
04:00   1014.2 mb 4 mph 95% 91%
05:00   1014.0 mb 4 mph 96% 88%
06:00   1013.9 mb 5 mph 97% 54%
12:00   1014.3 mb 5 mph 75% 100%
18:00 0.1 mm 1013.1 mb 5 mph 91% 58%
 06:07     17:51 Tuesday 29.09.2020
00:00 1.1 mm 1013.8 mb 2 mph 96% 96%
06:00 0.7 mm 1016.1 mb 9 mph 90% 97%
12:00   1017.5 mb 8 mph 68% 67%
18:00   1016.4 mb 6 mph 78% 28%
 06:09     17:49 Wednesday 30.09.2020
00:00   1015.1 mb 4 mph 95% 77%
06:00   1011.2 mb 9 mph 86% 42%
12:00 0.8 mm 1005.2 mb 15 mph 83% 100%
18:00 5.7 mm 1001.6 mb 12 mph 87% 99%
 06:11     17:46 Thursday 01.10.2020
00:00 0.5 mm 1001.6 mb 10 mph 90% 85%
06:00 0.3 mm 999.5 mb 8 mph 89% 88%
12:00 0.4 mm 1002.5 mb 16 mph 56% 43%
18:00 0.1 mm 1007.0 mb 9 mph 65% 1%
 06:12     17:44 Friday 02.10.2020
00:00   1009.8 mb 6 mph 79% 78%
06:00   1009.7 mb 5 mph 76% 98%
12:00 2.5 mm 1009.0 mb 11 mph 91% 100%
18:00 2.3 mm 1008.6 mb 15 mph 95% 100%
 06:14     17:42 Saturday 03.10.2020
00:00   1009.1 mb 11 mph 93% 81%
06:00   1007.9 mb 10 mph 93% 100%
12:00 0.2 mm 1005.9 mb 17 mph 85% 99%
18:00 3.2 mm 1003.9 mb 11 mph 94% 99%
 06:16     17:39 Sunday 04.10.2020
00:00 0.7 mm 1004.6 mb 7 mph 93% 98%
06:00   1004.5 mb 6 mph 96% 16%
12:00   1004.4 mb 10 mph 54% 5%
18:00 0.6 mm 1002.9 mb 6 mph 85% 31%